Tracking 20719 objects as of 26-May-2020
HD Live streaming from Space Station
objects crossing your sky now

OPS 9381 (GGTS)

Track OPS 9381 (GGTS) now!
OPS 9381 (GGTS) is classified as:


NORAD ID: 2207
Int'l Code: 1966-053A
Perigee: 33,666.4 km
Apogee: 33,851.8 km
Inclination: 4.6 °
Period: 1,333.4 minutes
Semi major axis: 40130 km
RCS: 0.8912 m2 (medium)
Launch date: June 16, 1966
Source: United States (US)
Launch site: AIR FORCE EASTERN TEST RANGE (AFETR)
aabbcc
Your satellite tracking list
Your tracking list is empty




NASA's NSSDC Master Catalog

Two Line Element Set (TLE):
1  2207U 66053A   20146.24755023 -.00000095 +00000-0 +00000-0 0  9997
2  2207 004.6416 057.8252 0023100 184.0837 200.8205 01.07993590212050
Source of the keplerian elements: AFSPC